Find Starlink 35148

NORAD ID: 65844 Int'l Des: 2025-221 Owner: SPXS Country: US Constellation: starlink operational
LEOCIRCULAR

Aktuelle Ansicht

3D-Globus wird geladen...

Über Starlink 35148

Beschreibung wird geladen...

Nächste Überflüge

Passes for default location (London). Set your location on the main map for personalized predictions.

Höhenverlauf

Loading altitude history...

Zweizeiliger Elementsatz

1 65844U 25221X 26150.14664499 .00055784 00000-0 16480-2 0 9996
2 65844 53.1606 69.3578 0000740 165.0763 195.0262 15.34435977 37213
Epoch: 30. Mai 2026 • Age: 7 hours

Aktueller Status

Höhe 464.6 km
Geschwindigkeit 7.64 km/s
Subsatellitenpunkt -9.24°S, 152.06°W
Startdatum 29. Sept. 2025
Alter 0.6 years
Typ internet

Technische Details

Klassifizierung Payload
Masse 575.00 kg
Trockenmasse 530.00 kg
Gesamtmasse 575.00 kg
Länge 0.30 m
Durchmesser 4.10 m
Spannweite 29.00 m
Form Box + pan
Hersteller SPXS
Bus-Typ Starlink V2MO
Phasenstatus In Orbit
Besitzer/Staat SPXS/US

Most Searched